CZ-4B DEB, 57397

Orbit data source: Space-Track

CZ-4B DEB, 57397 is space debris in SSO originally from a launch on Wed, 24 Oct 2018 UTC launched from the Taiyaun Space Center, China (TSC). Debris objects in space refer to the collection of defunct objects orbiting the Earth. Examples of debris include non-operational satellites, rocket bodies, and fragments generated from explosions, collisions, or faulty payload assembly.

Loading next visibility...
Identifier
57397, 2018-081Q
Orbit
SSO
Country
Flag of CNCN / PRC
Related business
Manufacturer
Unknown
Mission
Spacecraft
Bus & Motor
Unknown
Mass
Unknown
Launch date (UTC)
2018-10-24 (7 years ago)
Launch vehicle
Unknown
Launch site
Taiyaun Space Center, China (TSC)
Object type
Payload
Rocket body
Debris
Shape & HBR
Unknown
Radar Cross Section
Small (<0.1 m²)

Expand to show TLE details & history
Last TLE update: 4 days ago

TLE from 4 days ago
0 CZ-4B DEB
1 57397U 18081Q   25254.42282669  .00001368  00000-0  37205-3 0  9994
2 57397  99.3714 151.0108 0197345 331.6450  27.4105 14.38634273126899
Epoch: 2025-09-11T10:08Z
TLE epoch observation values (Epoch: 2025-09-11T10:08:52.226Z)
Latitude
0.00005°
Longitude
8.10807°
Altitude
641.409 km
Speed
7.603 km/s
True Right ascension
10h 04m 02s
True Declination
0° 00' 00"
Sunlit
Object was in daylight at epoch
Visualization orbit readout
Latitude
Unknown
Longitude
Unknown
Altitude
Unknown
Speed
Unknown
Apparent Right ascension
Unknown
Apparent Declination
Unknown
Sunlit
N/A
Visualization observer readout
Local Sidereal Time
23:29:46
Azimuth
Unknown
Elevation
Unknown
Doppler factor
Unknown
Orbital elements
Apogee altitude
901.051 km
Perigee altitude
619.308 km
Semi-major axis
7,138.317 km
Eccentricity
0.01973
Inclination
99.3714°
RAAN
151.0108°
Arg. of periapsis
331.645°
True anomaly
28.47479°
Mean anomaly
27.4105°
Eccentric anomaly
27.94029°
Mean motion
3.59873 °/min
Orbital period
100.04 mins
BSTAR
0.00037205
Loading maneuver chart data...
Computing Atmospheric mass density...
Loading historical data...
Loading historical data...
Loading historical data...
Loading historical data...
Loading historical data...
Loading historical data...
Loading historical data...

Documentation

Showing up to 5 results
|